www.pogodaiklimat.ru

Погода и климат >> Архив погоды >> Индия >> Naliya


ПОГОДА в Naliya

  • Прогноз погоды в Naliya
  • Монитор погоды в Naliya
  • Климат города

АРХИВ ПОГОДЫ в Naliya

Время (UTC), дата Ветер
(напр.,м/с)
 
Видим.   Явления Облачность Т
(С)
Тd
(С)
f
(%)
Тe
(С)
Тes
(С)
Комфортность P
(гПа)
Po
(гПа)
Тmin
(С)
Tmax
(С)
R
(мм)
R24
(мм)
S
(см)
12 11.12 штиль 0 10 км ясно +24.8 +6.3 30 +25 +25 комфорт 1012.9 1013.0 +26.6
15 11.12 штиль 0 4000 м ясно +19.6 +7.0 44 +20 +20 1014.8 1015.0
18 11.12 штиль 0 4000 м ясно +15.4 +7.4 59 +15 +15 1015.7 1016.0
21 11.12 штиль 0 4000 м ясно +12.0 +6.6 70 +12 +12 1014.9 1015.0
00 12.12 штиль 0 4000 м ясно +10.8 +6.1 73 +10 +10 1014.4 1014.0
03 12.12 штиль 0 10 км ясно +12.6 +8.2 75 +12 +13 1016.3 1016.0 +9.6
06 12.12 штиль 0 10 км 3/0 2000 м
[Ac cuf]
+25.0 +10.7 41 +26 +36 жарко 1016.6 1017.0
09 12.12 штиль 0 10 км 1/0 2000 м
[Ac cuf]
+26.4 +7.2 29 +26 +37 жарко 1014.3 1014.0
12 12.12 ЮЗ 2 10 км ясно +24.6 +8.7 36 +25 +26 комфорт 1014.1 1014.0 +27.2
15 12.12 штиль 0 4000 м ясно +19.2 +12.4 65 +20 +20 1015.6 1016.0
18 12.12 штиль 0 4000 м ясно +13.4 +7.3 67 +13 +13 1016.6 1017.0
21 12.12 штиль 0 4000 м ясно +11.0 +6.8 75 +10 +10 1016.0 1016.0
00 13.12 штиль 0 4000 м ясно +9.4 +5.5 77 +9 +9 1015.6 1016.0
03 13.12 штиль 0 10 км ясно +11.2 +7.0 75 +11 +12 1017.3 1017.0 +7.8
06 13.12 штиль 0 10 км ясно +24.8 +2.4 23 +24 +36 комфорт 1017.4 1017.0
09 13.12 штиль 0 10 км ясно +27.0 +4.7 24 +26 +37 жарко 1014.9 1015.0
12 13.12 З 2 10 км ясно +24.8 +9.0 37 +25 +26 комфорт 1014.8 1015.0 +28.2
15 13.12 штиль 0 4000 м ясно +19.4 +12.3 63 +21 +21 комфорт 1015.7 1016.0
18 13.12 штиль 0 4000 м ясно +14.4 +11.0 80 +14 +14 1016.8 1017.0
21 13.12 штиль 0 4000 м ясно +12.2 +8.6 79 +12 +12 1016.7 1017.0
00 14.12 штиль 0 4000 м ясно +11.6 +8.4 81 +11 +11 1016.5 1017.0
03 14.12 С 2 10 км 3/0 2000 м
[Ac und]
+14.8 +9.1 69 +15 +15 1018.3 1018.0 +10.8
06 14.12 С 2 10 км ясно +23.4 +2.5 25 +23 +31 комфорт 1019.5 1020.0
09 14.12 С 2 10 км ясно +25.0 +4.2 26 +24 +33 комфорт 1017.6 1018.0
12 14.12 С 2 10 км ясно +23.0 +7.8 38 +24 +25 комфорт 1016.7 1017.0 +25.2
15 14.12 С 2 4000 м ясно +17.8 +10.3 61 +19 +19 1018.4 1018.0
18 14.12 штиль 0 4000 м ясно +15.0 +10.9 76 +15 +15 1019.3 1019.0
21 14.12 штиль 0 4000 м ясно +12.8 +8.8 77 +12 +12 1017.7 1018.0
00 15.12 штиль 0 4000 м ясно +10.8 +7.9 82 +10 +10 1017.6 1018.0
03 15.12 штиль 0 10 км ясно +10.6 +7.7 82 +10 +11 1019.8 1020.0 +8.4
06 15.12 С 2 10 км ясно +20.0 +7.6 45 +22 +30 комфорт 1020.9 1021.0
09 15.12 С 3 10 км ясно +23.0 +6.7 35 +24 +31 комфорт 1018.2 1018.0
12 15.12 С 2 10 км ясно +22.4 +6.4 35 +23 +23 комфорт 1017.8 1018.0 +23.6
15 15.12 С 2 4000 м ясно +18.6 +8.6 52 +20 +20 1020.3 1020.0
18 15.12 С 2 4000 м ясно +16.8 +6.2 50 +17 +17 1020.7 1021.0
21 15.12 С 2 4000 м ясно +15.0 +6.4 56 +15 +15 1017.7 1018.0
00 16.12 штиль 0 4000 м ясно +12.8 +6.1 64 +13 +13 1018.9 1019.0
03 16.12 штиль 0 10 км ясно +11.4 +7.3 76 +11 +12 1021.1 1021.0 +8.6
06 16.12 СВ 2 10 км ясно +20.6 +4.6 35 +22 +31 комфорт 1021.1 1021.0
09 16.12 СВ 3 10 км ясно +25.2 +6.4 30 +25 +33 комфорт 1018.1 1018.0
12 16.12 СВ 2 10 км ясно +25.4 +6.1 29 +25 +26 комфорт 1016.9 1017.0 +26.2
15 16.12 С 2 4000 м ясно +20.4 +7.6 44 +22 +22 комфорт 1019.4 1019.0
18 16.12 штиль 0 4000 м ясно +15.0 +6.4 56 +15 +15 1020.6 1021.0
21 16.12 С 2 4000 м ясно +15.2 +5.1 51 +15 +15 1019.3 1019.0
00 17.12 штиль 0 4000 м ясно +13.0 +3.7 53 +13 +13 1019.2 1019.0
03 17.12 штиль 0 10 км ясно +13.2 +4.0 54 +13 +14 1020.3 1020.0 +11.6
06 17.12 СВ 2 10 км ясно +22.6 +5.0 32 +23 +32 комфорт 1021.0 1021.0
09 17.12 СВ 2 10 км ясно +26.4 +7.2 29 +26 +35 жарко 1017.9 1018.0
12 17.12 СВ 2 10 км ясно +26.4 +7.8 31 +26 +27 жарко 1017.2 1017.0 +28.4
15 17.12 штиль 0 4000 м ясно +21.0 +8.5 45 +22 +22 комфорт 1018.9 1019.0
18 17.12 штиль 0 4000 м ясно +19.4 +5.6 40 +20 +20 1019.9 1020.0
21 17.12 штиль 0 4000 м ясно +16.4 +5.1 47 +16 +16 1018.8 1019.0
00 18.12 штиль 0 4000 м ясно +16.2 +6.4 52 +16 +16 1018.3 1018.0
03 18.12 штиль 0 10 км ясно +17.4 +8.5 56 +17 +18 1020.0 1020.0 +14.6
06 18.12 СВ 2 10 км ясно +28.4 +11.9 36 +29 +39 жарко 1020.6 1021.0

 

Местоположение метеостанции Naliya (Gujarat, Индия): широта 23.25 долгота 68.85 высота над уровнем моря 21 м.

В архиве по умолчанию представлена погода в Naliya за последнюю неделю. Архивные данные за месяц целиком и за предыдущие месяцы, начиная с января 2011 года, Вы можете получить, выбрав интересующий диапазон дат из раскрывающегося списка и нажав кнопку "Ввод!".

Внимание! Время в таблицах - всемирное. Для получения местного времени необходимо прибавить поправку, которая в Naliya равна 5.5 ч.

Смотрите также архив погоды в соседних городах и на ближайших метеорологических станциях:

Погода в Mandvi (Gujarat, Индия) (64 км)
Погода в Bhuj-Rudramata (Gujarat, Индия) (84 км)
Погода в Okha (Gujarat, Индия) (90 км)
Погода в Dwarka (Gujarat, Индия) (101 км)
Погода в Kandla (Gujarat, Индия) (129 км)
Погода в New Kandla (Gujarat, Индия) (143 км)
Погода в Badin (Пакистан) (154 км)
Погода в Porbandar (Gujarat, Индия) (197 км)
Погода в Rajkot (Gujarat, Индия) (224 км)
Погода в Hyderabad (Пакистан) (241 км)

Пояснения к столбцам:

Ветер - указаны скорость ветра в м/с - средняя за 10 мин, порывы в срок и между сроками (в фигурных скобках) и направление, откуда дует ветер: С - северный, СВ - северо-восточный, В - восточный, ЮВ - юго-восточный, Ю - южный, ЮЗ - юго-западный, З - западный, СЗ - северо-западный.
Видимость - горизонтальная дальность видимости в метрах или километрах. При видимости от 1 до 10 км при отсутствии осадков обычно наблюдается дымка, при ухудшении видимости до 1 км и менее - туман. В сухую погоду видимость может ухудшаться дымом, пылью или мглою.
Явления - указаны атмосферные явления, наблюдавшиеся в срок или в последний час перед сроком; фигурными скобками обозначены явления, наблюдавшиеся между сроками (за 1-3 часа до срока); квадратными скобками обозначены град или гололедные отложения с указанием их диаметра в мм.
Облачность - указаны через наклонную черту общая и нижняя облачность в баллах и высота нижней границы облаков в метрах; квадратными скобками обозначены формы облаков: Ci - перистые, Cs - перисто-слоистые, Cc - перисто-кучевые, Ac - высококучевые, As - высокослоистые, Sc - слоисто-кучевые, Ns - слоисто-дождевые, Cu - кучевые, Cb - кучево-дождевые. Подробнее классификацию облаков см. в Атласе облаков (PDF).
T - Температура воздуха - температура, измеренная на высоте 2 м над землей.
Td - Температура точки росы - температура, при понижении до которой содержащийся в воздухе водяной пар достигнет насыщения.
f - Относительная влажность воздуха - влажноcть воздуха, измеренная на высоте 2 м над землей.
Te - Эффективная температура - температура, которую ощущает одетый по сезону человек в тени. Характеристика душности погоды. При расчете учитывается влияние влажности воздуха и скорости ветра на теплоощущения человека.
Tes - Эффективная температура на солнце - температура, которую ощущает человек, с поправкой на солнечный нагрев. Характеристика знойности погоды. Зависит от высоты солнца над горизонтом, облачности и скорости ветра. Ночью, в пасмурную погоду, а также при ветре 12 м/с и более поправка равна нулю.
P - Атмосферное давление - приведенное к уровню моря атмосферное давление.
Po - Атмосферное давление - измеренное на уровне метеостанции атмосферное давление.
Tmin - Минимальная температура - минимум температуры воздуха на высоте 2 м над землей.
Tmax - Максимальная температура - максимум температуры воздуха на высоте 2 м над землей.
R - Количество осадков - Количество выпавших осадков за период времени, мм. При наведении курсора мыши на число - период времени, за который выпало указанное количество осадков.
R24 - Количество осадков - Количество выпавших осадков за 24 часа, мм.
S - Снежный покров - Высота снежного покрова, см. При наведении курсора мыши на число - состояние снежного покрова и степень покрытия местности в баллах.